Year,Month,Day,Hour,Minute,Value (Times are PST for windgust in km/hr)
2014,03,28,00,00,14.50
2014,03,28,00,01,11.30
2014,03,28,00,02,11.30
2014,03,28,00,03,11.30
2014,03,28,00,04,11.30
2014,03,28,00,05,14.50
2014,03,28,00,06,6.40
2014,03,28,00,07,6.40
2014,03,28,00,08,9.60
2014,03,28,00,09,4.80
2014,03,28,00,10,6.40
2014,03,28,00,11,11.30
2014,03,28,00,12,12.90
2014,03,28,00,13,12.90
2014,03,28,00,14,9.60
2014,03,28,00,15,9.60
2014,03,28,00,16,12.90
2014,03,28,00,17,12.90
2014,03,28,00,18,14.50
2014,03,28,00,19,17.70
2014,03,28,00,20,11.30
2014,03,28,00,21,12.90
2014,03,28,00,22,9.60
2014,03,28,00,23,12.90
2014,03,28,00,24,17.70
2014,03,28,00,25,9.60
2014,03,28,00,26,9.60
2014,03,28,00,27,12.90
2014,03,28,00,28,17.70
2014,03,28,00,29,6.40
2014,03,28,00,30,12.90
2014,03,28,00,31,14.50
2014,03,28,00,32,14.50
2014,03,28,00,33,12.90
2014,03,28,00,34,9.60
2014,03,28,00,35,6.40
2014,03,28,00,36,8.10
2014,03,28,00,37,12.90
2014,03,28,00,38,11.30
2014,03,28,00,39,6.40
2014,03,28,00,40,11.30
2014,03,28,00,41,9.60
2014,03,28,00,42,9.60
2014,03,28,00,43,14.50
2014,03,28,00,44,9.60
2014,03,28,00,45,8.10
2014,03,28,00,46,6.40
2014,03,28,00,47,14.50
2014,03,28,00,48,12.90
2014,03,28,00,49,14.50
2014,03,28,00,50,14.50
2014,03,28,00,51,11.30
2014,03,28,00,52,8.10
2014,03,28,00,53,11.30
2014,03,28,00,54,6.40
2014,03,28,00,55,17.70
2014,03,28,00,56,9.60
2014,03,28,00,57,12.90
2014,03,28,00,58,14.50
2014,03,28,00,59,16.10
2014,03,28,01,00,11.30
2014,03,28,01,01,16.10
2014,03,28,01,02,12.90
2014,03,28,01,03,16.10
2014,03,28,01,04,11.30
2014,03,28,01,05,8.10
2014,03,28,01,06,6.40
2014,03,28,01,07,8.10
2014,03,28,01,08,6.40
2014,03,28,01,09,8.10
2014,03,28,01,10,12.90
2014,03,28,01,11,6.40
2014,03,28,01,12,6.40
2014,03,28,01,13,6.40
2014,03,28,01,14,6.40
2014,03,28,01,15,8.10
2014,03,28,01,16,4.80
2014,03,28,01,17,6.40
2014,03,28,01,18,6.40
2014,03,28,01,19,9.60
2014,03,28,01,20,4.80
2014,03,28,01,21,9.60
2014,03,28,01,22,6.40
2014,03,28,01,23,9.60
2014,03,28,01,24,8.10
2014,03,28,01,25,6.40
2014,03,28,01,26,4.80
2014,03,28,01,27,4.80
2014,03,28,01,28,14.50
2014,03,28,01,29,9.60
2014,03,28,01,30,9.60
2014,03,28,01,31,12.90
2014,03,28,01,32,6.40
2014,03,28,01,33,9.60
2014,03,28,01,34,12.90
2014,03,28,01,35,12.90
2014,03,28,01,36,12.90
2014,03,28,01,37,16.10
2014,03,28,01,38,11.30
2014,03,28,01,39,11.30
2014,03,28,01,40,12.90
2014,03,28,01,41,12.90
2014,03,28,01,42,17.70
2014,03,28,01,43,12.90
2014,03,28,01,44,12.90
2014,03,28,01,45,11.30
2014,03,28,01,46,16.10
2014,03,28,01,47,16.10
2014,03,28,01,48,11.30
2014,03,28,01,49,17.70
2014,03,28,01,50,14.50
2014,03,28,01,51,14.50
2014,03,28,01,52,8.10
2014,03,28,01,53,12.90
2014,03,28,01,54,8.10
2014,03,28,01,55,16.10
2014,03,28,01,56,14.50
2014,03,28,01,57,11.30
2014,03,28,01,58,9.60
2014,03,28,01,59,4.80
2014,03,28,02,00,16.10
2014,03,28,02,01,11.30
2014,03,28,02,02,11.30
2014,03,28,02,03,8.10
2014,03,28,02,04,6.40
2014,03,28,02,05,8.10
2014,03,28,02,06,8.10
2014,03,28,02,07,9.60
2014,03,28,02,08,6.40
2014,03,28,02,09,9.60
2014,03,28,02,10,9.60
2014,03,28,02,11,14.50
2014,03,28,02,12,12.90
2014,03,28,02,13,12.90
2014,03,28,02,14,6.40
2014,03,28,02,15,8.10
2014,03,28,02,16,8.10
2014,03,28,02,17,6.40
2014,03,28,02,18,4.80
2014,03,28,02,19,11.30
2014,03,28,02,20,12.90
2014,03,28,02,21,12.90
2014,03,28,02,22,8.10
2014,03,28,02,23,6.40
2014,03,28,02,24,14.50
2014,03,28,02,25,12.90
2014,03,28,02,26,9.60
2014,03,28,02,27,9.60
2014,03,28,02,28,14.50
2014,03,28,02,29,11.30
2014,03,28,02,30,8.10
2014,03,28,02,31,9.60
2014,03,28,02,32,14.50
2014,03,28,02,33,11.30
2014,03,28,02,34,9.60
2014,03,28,02,35,14.50
2014,03,28,02,36,12.90
2014,03,28,02,37,12.90
2014,03,28,02,38,8.10
2014,03,28,02,39,8.10
2014,03,28,02,40,12.90
2014,03,28,02,41,9.60
2014,03,28,02,42,8.10
2014,03,28,02,43,6.40
2014,03,28,02,44,6.40
2014,03,28,02,45,9.60
2014,03,28,02,46,9.60
2014,03,28,02,47,12.90
2014,03,28,02,48,6.40
2014,03,28,02,49,11.30
2014,03,28,02,50,6.40
2014,03,28,02,51,8.10
2014,03,28,02,52,9.60
2014,03,28,02,53,6.40
2014,03,28,02,54,4.80
2014,03,28,02,55,9.60
2014,03,28,02,56,12.90
2014,03,28,02,57,3.20
2014,03,28,02,58,11.30
2014,03,28,02,59,8.10
2014,03,28,03,00,11.30
2014,03,28,03,01,11.30
2014,03,28,03,02,6.40
2014,03,28,03,03,11.30
2014,03,28,03,04,9.60
2014,03,28,03,05,12.90
2014,03,28,03,06,6.40
2014,03,28,03,07,9.60
2014,03,28,03,08,11.30
2014,03,28,03,09,12.90
2014,03,28,03,10,11.30
2014,03,28,03,11,12.90
2014,03,28,03,12,11.30
2014,03,28,03,13,9.60
2014,03,28,03,14,8.10
2014,03,28,03,15,9.60
2014,03,28,03,16,4.80
2014,03,28,03,17,8.10
2014,03,28,03,18,4.80
2014,03,28,03,19,4.80
2014,03,28,03,20,6.40
2014,03,28,03,21,3.20
2014,03,28,03,22,6.40
2014,03,28,03,23,6.40
2014,03,28,03,24,4.80
2014,03,28,03,25,6.40
2014,03,28,03,26,4.80
2014,03,28,03,27,6.40
2014,03,28,03,28,9.60
2014,03,28,03,29,6.40
2014,03,28,03,30,6.40
2014,03,28,03,31,8.10
2014,03,28,03,32,11.30
2014,03,28,03,33,8.10
2014,03,28,03,34,3.20
2014,03,28,03,35,8.10
2014,03,28,03,36,4.80
2014,03,28,03,37,8.10
2014,03,28,03,38,6.40
2014,03,28,03,39,11.30
2014,03,28,03,40,9.60
2014,03,28,03,41,9.60
2014,03,28,03,42,14.50
2014,03,28,03,43,12.90
2014,03,28,03,44,12.90
2014,03,28,03,45,12.90
2014,03,28,03,46,11.30
2014,03,28,03,47,14.50
2014,03,28,03,48,11.30
2014,03,28,03,49,6.40
2014,03,28,03,50,6.40
2014,03,28,03,51,22.50
2014,03,28,03,52,6.40
2014,03,28,03,53,12.90
2014,03,28,03,54,11.30
2014,03,28,03,55,14.50
2014,03,28,03,56,8.10
2014,03,28,03,57,17.70
2014,03,28,03,58,14.50
2014,03,28,03,59,12.90
2014,03,28,04,00,16.10
2014,03,28,04,01,17.70
2014,03,28,04,02,6.40
2014,03,28,04,03,6.40
2014,03,28,04,04,11.30
2014,03,28,04,05,12.90
2014,03,28,04,06,14.50
2014,03,28,04,07,12.90
2014,03,28,04,08,17.70
2014,03,28,04,09,14.50
2014,03,28,04,10,11.30
2014,03,28,04,11,8.10
2014,03,28,04,12,11.30
2014,03,28,04,13,6.40
2014,03,28,04,14,14.50
2014,03,28,04,15,16.10
2014,03,28,04,16,14.50
2014,03,28,04,17,16.10
2014,03,28,04,18,14.50
2014,03,28,04,19,6.40
2014,03,28,04,20,6.40
2014,03,28,04,21,14.50
2014,03,28,04,22,12.90
2014,03,28,04,23,9.60
2014,03,28,04,24,12.90
2014,03,28,04,25,8.10
2014,03,28,04,26,12.90
2014,03,28,04,27,14.50
2014,03,28,04,28,20.90
2014,03,28,04,29,12.90
2014,03,28,04,30,19.30
2014,03,28,04,31,19.30
2014,03,28,04,32,12.90
2014,03,28,04,33,12.90
2014,03,28,04,34,14.50
2014,03,28,04,35,16.10
2014,03,28,04,36,14.50
2014,03,28,04,37,11.30
2014,03,28,04,38,19.30
2014,03,28,04,39,9.60
2014,03,28,04,40,6.40
2014,03,28,04,41,12.90
2014,03,28,04,42,9.60
2014,03,28,04,43,6.40
2014,03,28,04,44,12.90
2014,03,28,04,45,8.10
2014,03,28,04,46,9.60
2014,03,28,04,47,6.40
2014,03,28,04,48,11.30
2014,03,28,04,49,6.40
2014,03,28,04,50,11.30
2014,03,28,04,51,11.30
2014,03,28,04,52,6.40
2014,03,28,04,53,11.30
2014,03,28,04,54,12.90
2014,03,28,04,55,9.60
2014,03,28,04,56,3.20
2014,03,28,04,57,11.30
2014,03,28,04,58,8.10
2014,03,28,04,59,8.10
2014,03,28,05,00,12.90
2014,03,28,05,01,16.10
2014,03,28,05,02,12.90
2014,03,28,05,03,9.60
2014,03,28,05,04,8.10
2014,03,28,05,05,9.60
2014,03,28,05,06,9.60
2014,03,28,05,07,11.30
2014,03,28,05,08,9.60
2014,03,28,05,09,9.60
2014,03,28,05,10,3.20
2014,03,28,05,11,9.60
2014,03,28,05,12,12.90
2014,03,28,05,13,9.60
2014,03,28,05,14,11.30
2014,03,28,05,15,9.60
2014,03,28,05,16,6.40
2014,03,28,05,17,3.20
2014,03,28,05,18,4.80
2014,03,28,05,19,6.40
2014,03,28,05,20,8.10
2014,03,28,05,21,6.40
2014,03,28,05,22,6.40
2014,03,28,05,23,6.40
2014,03,28,05,24,8.10
2014,03,28,05,25,9.60
2014,03,28,05,26,9.60
2014,03,28,05,27,4.80
2014,03,28,05,28,6.40
2014,03,28,05,29,6.40
2014,03,28,05,30,8.10
2014,03,28,05,31,8.10
2014,03,28,05,32,12.90
2014,03,28,05,33,8.10
2014,03,28,05,34,12.90
2014,03,28,05,35,8.10
2014,03,28,05,36,6.40
2014,03,28,05,37,8.10
2014,03,28,05,38,9.60
2014,03,28,05,39,11.30
2014,03,28,05,40,14.50
2014,03,28,05,41,9.60
2014,03,28,05,42,9.60
2014,03,28,05,43,11.30
2014,03,28,05,44,16.10
2014,03,28,05,45,9.60
2014,03,28,05,46,9.60
2014,03,28,05,47,8.10
2014,03,28,05,48,14.50
2014,03,28,05,49,9.60
2014,03,28,05,50,14.50
2014,03,28,05,51,8.10
2014,03,28,05,52,9.60
2014,03,28,05,53,19.30
2014,03,28,05,54,11.30
2014,03,28,05,55,14.50
2014,03,28,05,56,19.30
2014,03,28,05,57,19.30
2014,03,28,05,58,17.70
2014,03,28,05,59,17.70
2014,03,28,06,00,20.90
2014,03,28,06,01,14.50
2014,03,28,06,02,17.70
2014,03,28,06,03,16.10
2014,03,28,06,04,14.50
2014,03,28,06,05,8.10
2014,03,28,06,06,14.50
2014,03,28,06,07,14.50
2014,03,28,06,08,11.30
2014,03,28,06,09,9.60
2014,03,28,06,10,8.10
2014,03,28,06,11,16.10
2014,03,28,06,12,20.90
2014,03,28,06,13,17.70
2014,03,28,06,14,12.90
2014,03,28,06,15,14.50
2014,03,28,06,16,20.90
2014,03,28,06,17,14.50
2014,03,28,06,18,24.20
2014,03,28,06,19,16.10
2014,03,28,06,20,20.90
2014,03,28,06,21,22.50
2014,03,28,06,22,16.10
2014,03,28,06,23,11.30
2014,03,28,06,24,9.60
2014,03,28,06,25,6.40
2014,03,28,06,26,8.10
2014,03,28,06,27,12.90
2014,03,28,06,28,12.90
2014,03,28,06,29,11.30
2014,03,28,06,30,12.90
2014,03,28,06,31,12.90
2014,03,28,06,32,11.30
2014,03,28,06,33,14.50
2014,03,28,06,34,22.50
2014,03,28,06,35,12.90
2014,03,28,06,36,14.50
2014,03,28,06,37,12.90
2014,03,28,06,38,9.60
2014,03,28,06,39,8.10
2014,03,28,06,40,6.40
2014,03,28,06,41,17.70
2014,03,28,06,42,22.50
2014,03,28,06,43,29.00
2014,03,28,06,44,12.90
2014,03,28,06,45,14.50
2014,03,28,06,46,24.20
2014,03,28,06,47,19.30
2014,03,28,06,48,14.50
2014,03,28,06,49,19.30
2014,03,28,06,50,22.50
2014,03,28,06,51,19.30
2014,03,28,06,52,17.70
2014,03,28,06,53,12.90
2014,03,28,06,54,11.30
2014,03,28,06,55,19.30
2014,03,28,06,56,16.10
2014,03,28,06,57,11.30
2014,03,28,06,58,11.30
2014,03,28,06,59,16.10
2014,03,28,07,00,20.90
2014,03,28,07,01,9.60
2014,03,28,07,02,11.30
2014,03,28,07,03,12.90
2014,03,28,07,04,14.50
2014,03,28,07,05,16.10
2014,03,28,07,06,20.90
2014,03,28,07,07,12.90
2014,03,28,07,08,16.10
2014,03,28,07,09,14.50
2014,03,28,07,10,20.90
2014,03,28,07,11,12.90
2014,03,28,07,12,19.30
2014,03,28,07,13,19.30
2014,03,28,07,14,22.50
2014,03,28,07,15,14.50
2014,03,28,07,16,9.60
2014,03,28,07,17,14.50
2014,03,28,07,18,20.90
2014,03,28,07,19,16.10
2014,03,28,07,20,16.10
2014,03,28,07,21,16.10
2014,03,28,07,22,17.70
2014,03,28,07,23,25.70
2014,03,28,07,24,12.90
2014,03,28,07,25,16.10
2014,03,28,07,26,8.10
2014,03,28,07,27,25.70
2014,03,28,07,28,17.70
2014,03,28,07,29,11.30
2014,03,28,07,30,12.90
2014,03,28,07,31,24.20
2014,03,28,07,32,20.90
2014,03,28,07,33,17.70
2014,03,28,07,34,20.90
2014,03,28,07,35,17.70
2014,03,28,07,36,19.30
2014,03,28,07,37,9.60
2014,03,28,07,38,12.90
2014,03,28,07,39,14.50
2014,03,28,07,40,11.30
2014,03,28,07,41,24.20
2014,03,28,07,42,11.30
2014,03,28,07,43,16.10
2014,03,28,07,44,20.90
2014,03,28,07,45,25.70
2014,03,28,07,46,22.50
2014,03,28,07,47,19.30
2014,03,28,07,48,14.50
2014,03,28,07,49,9.60
2014,03,28,07,50,9.60
2014,03,28,07,51,8.10
2014,03,28,07,52,14.50
2014,03,28,07,53,19.30
2014,03,28,07,54,20.90
2014,03,28,07,55,30.60
2014,03,28,07,56,27.40
2014,03,28,07,57,24.20
2014,03,28,07,58,14.50
2014,03,28,07,59,9.60
2014,03,28,08,00,19.30
2014,03,28,08,01,16.10
2014,03,28,08,02,16.10
2014,03,28,08,03,27.40
2014,03,28,08,04,16.10
2014,03,28,08,05,16.10
2014,03,28,08,06,12.90
2014,03,28,08,07,9.60
2014,03,28,08,08,17.70
2014,03,28,08,09,11.30
2014,03,28,08,10,12.90
2014,03,28,08,11,29.00
2014,03,28,08,12,25.70
2014,03,28,08,13,24.20
2014,03,28,08,14,16.10
2014,03,28,08,15,14.50
2014,03,28,08,16,22.50
2014,03,28,08,17,19.30
2014,03,28,08,18,33.80
2014,03,28,08,19,27.40
2014,03,28,08,20,25.70
2014,03,28,08,21,12.90
2014,03,28,08,22,24.20
2014,03,28,08,23,20.90
2014,03,28,08,24,27.40
2014,03,28,08,25,20.90
2014,03,28,08,26,17.70
2014,03,28,08,27,11.30
2014,03,28,08,28,14.50
2014,03,28,08,29,25.70
2014,03,28,08,30,30.60
2014,03,28,08,31,12.90
2014,03,28,08,32,24.20
2014,03,28,08,33,17.70
2014,03,28,08,34,16.10
2014,03,28,08,35,17.70
2014,03,28,08,36,27.40
2014,03,28,08,37,16.10
2014,03,28,08,38,29.00
2014,03,28,08,39,19.30
2014,03,28,08,40,24.20
2014,03,28,08,41,14.50
2014,03,28,08,42,22.50
2014,03,28,08,43,19.30
2014,03,28,08,44,22.50
2014,03,28,08,45,24.20
2014,03,28,08,46,24.20
2014,03,28,08,47,20.90
2014,03,28,08,48,12.90
2014,03,28,08,49,24.20
2014,03,28,08,50,25.70
2014,03,28,08,51,24.20
2014,03,28,08,52,14.50
2014,03,28,08,53,12.90
2014,03,28,08,54,22.50
2014,03,28,08,55,22.50
2014,03,28,08,56,17.70
2014,03,28,08,57,17.70
2014,03,28,08,58,17.70
2014,03,28,08,59,17.70
2014,03,28,09,00,17.70
2014,03,28,09,01,24.20
2014,03,28,09,02,20.90
2014,03,28,09,03,24.20
2014,03,28,09,04,16.10
2014,03,28,09,05,27.40
2014,03,28,09,06,17.70
2014,03,28,09,07,20.90
2014,03,28,09,08,32.20
2014,03,28,09,09,19.30
2014,03,28,09,10,22.50
2014,03,28,09,11,25.70
2014,03,28,09,12,20.90
2014,03,28,09,13,29.00
2014,03,28,09,14,16.10
2014,03,28,09,15,33.80
2014,03,28,09,16,29.00
2014,03,28,09,17,22.50
2014,03,28,09,18,25.70
2014,03,28,09,19,20.90
2014,03,28,09,20,24.20
2014,03,28,09,21,16.10
2014,03,28,09,22,22.50
2014,03,28,09,23,24.20
2014,03,28,09,24,25.70
2014,03,28,09,25,24.20
2014,03,28,09,26,25.70
2014,03,28,09,27,19.30
2014,03,28,09,28,20.90
2014,03,28,09,29,20.90
2014,03,28,09,30,20.90
2014,03,28,09,31,24.20
2014,03,28,09,32,29.00
2014,03,28,09,33,27.40
2014,03,28,09,34,25.70
2014,03,28,09,35,19.30
2014,03,28,09,36,11.30
2014,03,28,09,37,25.70
2014,03,28,09,38,32.20
2014,03,28,09,39,33.80
2014,03,28,09,40,33.80
2014,03,28,09,41,19.30
2014,03,28,09,42,29.00
2014,03,28,09,43,29.00
2014,03,28,09,44,27.40
2014,03,28,09,45,40.20
2014,03,28,09,46,35.40
2014,03,28,09,47,16.10
2014,03,28,09,48,19.30
2014,03,28,09,49,20.90
2014,03,28,09,50,24.20
2014,03,28,09,51,32.20
2014,03,28,09,52,30.60
2014,03,28,09,53,33.80
2014,03,28,09,54,35.40
2014,03,28,09,55,37.00
2014,03,28,09,56,37.00
2014,03,28,09,57,24.20
2014,03,28,09,58,19.30
2014,03,28,09,59,29.00
2014,03,28,10,00,20.90
2014,03,28,10,01,30.60
2014,03,28,10,02,33.80
2014,03,28,10,03,29.00
2014,03,28,10,04,24.20
2014,03,28,10,05,29.00
2014,03,28,10,06,20.90
2014,03,28,10,07,20.90
2014,03,28,10,08,27.40
2014,03,28,10,09,35.40
2014,03,28,10,10,22.50
2014,03,28,10,11,22.50
2014,03,28,10,12,25.70
2014,03,28,10,13,25.70
2014,03,28,10,14,33.80
2014,03,28,10,15,17.70
2014,03,28,10,16,20.90
2014,03,28,10,17,32.20
2014,03,28,10,18,32.20
2014,03,28,10,19,38.60
2014,03,28,10,20,19.30
2014,03,28,10,21,19.30
2014,03,28,10,22,16.10
2014,03,28,10,23,17.70
2014,03,28,10,24,22.50
2014,03,28,10,25,29.00
2014,03,28,10,26,30.60
2014,03,28,10,27,29.00
2014,03,28,10,28,27.40
2014,03,28,10,29,32.20
2014,03,28,10,30,24.20
2014,03,28,10,31,16.10
2014,03,28,10,32,27.40
2014,03,28,10,33,24.20
2014,03,28,10,34,22.50
2014,03,28,10,35,29.00
2014,03,28,10,36,27.40
2014,03,28,10,37,22.50
2014,03,28,10,38,27.40
2014,03,28,10,39,19.30
2014,03,28,10,40,20.90
2014,03,28,10,41,29.00
2014,03,28,10,42,33.80
2014,03,28,10,43,24.20
2014,03,28,10,44,22.50
2014,03,28,10,45,16.10
2014,03,28,10,46,29.00
2014,03,28,10,47,33.80
2014,03,28,10,48,27.40
2014,03,28,10,49,33.80
2014,03,28,10,50,17.70
2014,03,28,10,51,24.20
2014,03,28,10,52,24.20
2014,03,28,10,53,27.40
2014,03,28,10,54,33.80
2014,03,28,10,55,22.50
2014,03,28,10,56,24.20
2014,03,28,10,57,32.20
2014,03,28,10,58,25.70
2014,03,28,10,59,30.60
2014,03,28,11,00,25.70
2014,03,28,11,01,38.60
2014,03,28,11,02,32.20
2014,03,28,11,03,40.20
2014,03,28,11,04,25.70
2014,03,28,11,05,29.00
2014,03,28,11,06,30.60
2014,03,28,11,07,25.70
2014,03,28,11,08,24.20
2014,03,28,11,09,24.20
2014,03,28,11,10,25.70
2014,03,28,11,11,43.50
2014,03,28,11,12,70.80
2014,03,28,11,13,43.50
2014,03,28,11,14,24.20
2014,03,28,11,15,32.20
2014,03,28,11,16,22.50
2014,03,28,11,17,35.40
2014,03,28,11,18,33.80
2014,03,28,11,19,35.40
2014,03,28,11,20,30.60
2014,03,28,11,21,29.00
2014,03,28,11,22,20.90
2014,03,28,11,23,14.50
2014,03,28,11,24,25.70
2014,03,28,11,25,45.10
2014,03,28,11,26,29.00
2014,03,28,11,27,30.60
2014,03,28,11,28,25.70
2014,03,28,11,29,29.00
2014,03,28,11,30,29.00
2014,03,28,11,31,38.60
2014,03,28,11,32,40.20
2014,03,28,11,33,29.00
2014,03,28,11,34,30.60
2014,03,28,11,35,25.70
2014,03,28,11,36,29.00
2014,03,28,11,37,25.70
2014,03,28,11,38,25.70
2014,03,28,11,39,29.00
2014,03,28,11,40,41.80
2014,03,28,11,41,43.50
2014,03,28,11,42,30.60
2014,03,28,11,43,30.60
2014,03,28,11,44,48.30
2014,03,28,11,45,25.70
2014,03,28,11,46,40.20
2014,03,28,11,47,35.40
2014,03,28,11,48,37.00
2014,03,28,11,49,29.00
2014,03,28,11,50,24.20
2014,03,28,11,51,29.00
2014,03,28,11,52,33.80
2014,03,28,11,53,22.50
2014,03,28,11,54,29.00
2014,03,28,11,55,24.20
2014,03,28,11,56,40.20
2014,03,28,11,57,29.00
2014,03,28,11,58,27.40
2014,03,28,11,59,27.40
2014,03,28,12,00,24.20
2014,03,28,12,01,30.60
2014,03,28,12,02,35.40
2014,03,28,12,03,22.50
2014,03,28,12,04,35.40
2014,03,28,12,05,32.20
2014,03,28,12,06,29.00
2014,03,28,12,07,37.00
2014,03,28,12,08,27.40
2014,03,28,12,09,25.70
2014,03,28,12,10,25.70
2014,03,28,12,11,33.80
2014,03,28,12,12,32.20
2014,03,28,12,13,37.00
2014,03,28,12,14,32.20
2014,03,28,12,15,24.20
2014,03,28,12,16,33.80
2014,03,28,12,17,25.70
2014,03,28,12,18,20.90
2014,03,28,12,19,29.00
2014,03,28,12,20,38.60
2014,03,28,12,21,29.00
2014,03,28,12,22,29.00
2014,03,28,12,23,27.40
2014,03,28,12,24,32.20
2014,03,28,12,25,27.40
2014,03,28,12,26,38.60
2014,03,28,12,27,41.80
2014,03,28,12,28,35.40
2014,03,28,12,29,24.20
2014,03,28,12,30,27.40
2014,03,28,12,31,20.90
2014,03,28,12,32,38.60
2014,03,28,12,33,35.40
2014,03,28,12,34,25.70
2014,03,28,12,35,24.20
2014,03,28,12,36,30.60
2014,03,28,12,37,29.00
2014,03,28,12,38,41.80
2014,03,28,12,39,37.00
2014,03,28,12,40,30.60
2014,03,28,12,41,45.10
2014,03,28,12,42,32.20
2014,03,28,12,43,29.00
2014,03,28,12,44,20.90
2014,03,28,12,45,14.50
2014,03,28,12,46,24.20
2014,03,28,12,47,29.00
2014,03,28,12,48,19.30
2014,03,28,12,49,38.60
2014,03,28,12,50,32.20
2014,03,28,12,51,17.70
2014,03,28,12,52,25.70
2014,03,28,12,53,33.80
2014,03,28,12,54,32.20
2014,03,28,12,55,17.70
2014,03,28,12,56,35.40
2014,03,28,12,57,32.20
2014,03,28,12,58,33.80
2014,03,28,12,59,29.00
2014,03,28,13,00,35.40
2014,03,28,13,01,27.40
2014,03,28,13,02,20.90
2014,03,28,13,03,43.50
2014,03,28,13,04,32.20
2014,03,28,13,05,20.90
2014,03,28,13,06,38.60
2014,03,28,13,07,27.40
2014,03,28,13,08,37.00
2014,03,28,13,09,32.20
2014,03,28,13,10,33.80
2014,03,28,13,11,24.20
2014,03,28,13,12,37.00
2014,03,28,13,13,32.20
2014,03,28,13,14,24.20
2014,03,28,13,15,30.60
2014,03,28,13,16,16.10
2014,03,28,13,17,19.30
2014,03,28,13,18,27.40
2014,03,28,13,19,19.30
2014,03,28,13,20,17.70
2014,03,28,13,21,43.50
2014,03,28,13,22,19.30
2014,03,28,13,23,22.50
2014,03,28,13,24,33.80
2014,03,28,13,25,24.20
2014,03,28,13,26,24.20
2014,03,28,13,27,27.40
2014,03,28,13,28,29.00
2014,03,28,13,29,37.00
2014,03,28,13,30,24.20
2014,03,28,13,31,24.20
2014,03,28,13,32,30.60
2014,03,28,13,33,25.70
2014,03,28,13,34,20.90
2014,03,28,13,35,25.70
2014,03,28,13,36,27.40
2014,03,28,13,37,27.40
2014,03,28,13,38,30.60
2014,03,28,13,39,35.40
2014,03,28,13,40,30.60
2014,03,28,13,41,35.40
2014,03,28,13,42,40.20
2014,03,28,13,43,32.20
2014,03,28,13,44,19.30
2014,03,28,13,45,16.10
2014,03,28,13,46,30.60
2014,03,28,13,47,35.40
2014,03,28,13,48,24.20
2014,03,28,13,49,20.90
2014,03,28,13,50,16.10
2014,03,28,13,51,37.00
2014,03,28,13,52,17.70
2014,03,28,13,53,33.80
2014,03,28,13,54,20.90
2014,03,28,13,55,32.20
2014,03,28,13,56,37.00
2014,03,28,13,57,30.60
2014,03,28,13,58,29.00
2014,03,28,13,59,25.70
2014,03,28,14,00,16.10
2014,03,28,14,01,30.60
2014,03,28,14,02,20.90
2014,03,28,14,03,30.60
2014,03,28,14,04,37.00
2014,03,28,14,05,24.20
2014,03,28,14,06,27.40
2014,03,28,14,07,29.00
2014,03,28,14,08,29.00
2014,03,28,14,09,32.20
2014,03,28,14,10,27.40
2014,03,28,14,11,29.00
2014,03,28,14,12,25.70
2014,03,28,14,13,37.00
2014,03,28,14,14,20.90
2014,03,28,14,15,20.90
2014,03,28,14,16,29.00
2014,03,28,14,17,22.50
2014,03,28,14,18,22.50
2014,03,28,14,19,32.20
2014,03,28,14,20,25.70
2014,03,28,14,21,46.70
2014,03,28,14,22,30.60
2014,03,28,14,23,27.40
2014,03,28,14,24,32.20
2014,03,28,14,25,30.60
2014,03,28,14,26,17.70
2014,03,28,14,27,30.60
2014,03,28,14,28,24.20
2014,03,28,14,29,27.40
2014,03,28,14,30,37.00
2014,03,28,14,31,20.90
2014,03,28,14,32,27.40
2014,03,28,14,33,25.70
2014,03,28,14,34,24.20
2014,03,28,14,35,11.30
2014,03,28,14,36,29.00
2014,03,28,14,37,14.50
2014,03,28,14,38,29.00
2014,03,28,14,39,22.50
2014,03,28,14,40,25.70
2014,03,28,14,41,32.20
2014,03,28,14,42,22.50
2014,03,28,14,43,30.60
2014,03,28,14,44,32.20
2014,03,28,14,45,35.40
2014,03,28,14,46,27.40
2014,03,28,14,47,32.20
2014,03,28,14,48,30.60
2014,03,28,14,49,29.00
2014,03,28,14,50,27.40
2014,03,28,14,51,33.80
2014,03,28,14,52,32.20
2014,03,28,14,53,25.70
2014,03,28,14,54,22.50
2014,03,28,14,55,37.00
2014,03,28,14,56,27.40
2014,03,28,14,57,30.60
2014,03,28,14,58,32.20
2014,03,28,14,59,35.40
2014,03,28,15,00,41.80
2014,03,28,15,01,24.20
2014,03,28,15,02,27.40
2014,03,28,15,03,24.20
2014,03,28,15,04,19.30
2014,03,28,15,05,35.40
2014,03,28,15,06,29.00
2014,03,28,15,07,40.20
2014,03,28,15,08,19.30
2014,03,28,15,09,25.70
2014,03,28,15,10,22.50
2014,03,28,15,11,25.70
2014,03,28,15,12,40.20
2014,03,28,15,13,16.10
2014,03,28,15,14,32.20
2014,03,28,15,15,27.40
2014,03,28,15,16,25.70
2014,03,28,15,17,27.40
2014,03,28,15,18,20.90
2014,03,28,15,19,37.00
2014,03,28,15,20,25.70
2014,03,28,15,21,30.60
2014,03,28,15,22,29.00
2014,03,28,15,23,29.00
2014,03,28,15,24,32.20
2014,03,28,15,25,25.70
2014,03,28,15,26,27.40
2014,03,28,15,27,24.20
2014,03,28,15,28,45.10
2014,03,28,15,29,30.60
2014,03,28,15,30,38.60
2014,03,28,15,31,40.20
2014,03,28,15,32,38.60
2014,03,28,15,33,22.50
2014,03,28,15,34,14.50
2014,03,28,15,35,46.70
2014,03,28,15,36,37.00
2014,03,28,15,37,25.70
2014,03,28,15,38,37.00
2014,03,28,15,39,24.20
2014,03,28,15,40,27.40
2014,03,28,15,41,27.40
2014,03,28,15,42,27.40
2014,03,28,15,43,22.50
2014,03,28,15,44,25.70
2014,03,28,15,45,20.90
2014,03,28,15,46,35.40
2014,03,28,15,47,30.60
2014,03,28,15,48,22.50
2014,03,28,15,49,25.70
2014,03,28,15,50,25.70
2014,03,28,15,51,32.20
2014,03,28,15,52,27.40
2014,03,28,15,53,25.70
2014,03,28,15,54,24.20
2014,03,28,15,55,25.70
2014,03,28,15,56,12.90
2014,03,28,15,57,24.20
2014,03,28,15,58,24.20
2014,03,28,15,59,25.70
2014,03,28,16,00,22.50
2014,03,28,16,01,17.70
2014,03,28,16,02,24.20
2014,03,28,16,03,24.20
2014,03,28,16,04,27.40
2014,03,28,16,05,20.90
2014,03,28,16,06,19.30
2014,03,28,16,07,19.30
2014,03,28,16,08,14.50
2014,03,28,16,09,14.50
2014,03,28,16,10,24.20
2014,03,28,16,11,12.90
2014,03,28,16,12,16.10
2014,03,28,16,13,16.10
2014,03,28,16,14,12.90
2014,03,28,16,15,9.60
2014,03,28,16,16,11.30
2014,03,28,16,17,20.90
2014,03,28,16,18,11.30
2014,03,28,16,19,8.10
2014,03,28,16,20,14.50
2014,03,28,16,21,17.70
2014,03,28,16,22,19.30
2014,03,28,16,23,14.50
2014,03,28,16,24,22.50
2014,03,28,16,25,19.30
2014,03,28,16,26,22.50
2014,03,28,16,27,19.30
2014,03,28,16,28,19.30
2014,03,28,16,29,11.30
2014,03,28,16,30,12.90
2014,03,28,16,31,17.70
2014,03,28,16,32,17.70
2014,03,28,16,33,14.50
2014,03,28,16,34,17.70
2014,03,28,16,35,12.90
2014,03,28,16,36,12.90
2014,03,28,16,37,14.50
2014,03,28,16,38,11.30
2014,03,28,16,39,17.70
2014,03,28,16,40,11.30
2014,03,28,16,41,16.10
2014,03,28,16,42,6.40
2014,03,28,16,43,17.70
2014,03,28,16,44,14.50
2014,03,28,16,45,14.50
2014,03,28,16,46,14.50
2014,03,28,16,47,17.70
2014,03,28,16,48,14.50
2014,03,28,16,49,14.50
2014,03,28,16,50,9.60
2014,03,28,16,51,9.60
2014,03,28,16,52,20.90
2014,03,28,16,53,14.50
2014,03,28,16,54,17.70
2014,03,28,16,55,14.50
2014,03,28,16,56,14.50
2014,03,28,16,57,19.30
2014,03,28,16,58,22.50
2014,03,28,16,59,24.20
2014,03,28,17,00,20.90
2014,03,28,17,01,9.60
2014,03,28,17,02,14.50
2014,03,28,17,03,11.30
2014,03,28,17,04,11.30
2014,03,28,17,05,11.30
2014,03,28,17,06,19.30
2014,03,28,17,07,12.90
2014,03,28,17,08,12.90
2014,03,28,17,09,16.10
2014,03,28,17,10,16.10
2014,03,28,17,11,12.90
2014,03,28,17,12,16.10
2014,03,28,17,13,9.60
2014,03,28,17,14,12.90
2014,03,28,17,15,11.30
2014,03,28,17,16,12.90
2014,03,28,17,17,11.30
2014,03,28,17,18,6.40
2014,03,28,17,19,16.10
2014,03,28,17,20,17.70
2014,03,28,17,21,16.10
2014,03,28,17,22,16.10
2014,03,28,17,23,12.90
2014,03,28,17,24,14.50
2014,03,28,17,25,20.90
2014,03,28,17,26,14.50
2014,03,28,17,27,17.70
2014,03,28,17,28,19.30